Location: Sungai Jaoh
(2.9167°N, 113.9167°E)
Time: 14:40:31
(UTC+00:00)

ADEOS Rocket - Pass Details

Date: 30 November 2020
Orbit: 858 x 1307 km, 98.7° (Epoch: 25 January)

Event Time Altitude Azimuth Distance (km) Brightness Sun altitude
Rises 19:54:46 0° 146° (SE) 3,491 6.7 -33.1°
Reaches altitude 10° 19:57:21 10° 136° (SE) 2,589 6.0 -32.5°
Maximum altitude 20:02:22 31° 75° (ENE) 1,606 4.5 -31.4°
Enters shadow 20:07:21 12° 17° (NNE) 2,674 5.2 -30.2°
